Weather History for KYKN - December, 2012

Change the Weather History Date:

Friday, December 28, 2012

  Actual Average (KFSD) Record (KFSD)
Temperature  
Mean Temperature 14 °F 17 °F  
Max Temperature 19 °F 26 °F 57 °F (2002)
Min Temperature 10 °F 7 °F -23 °F (1924)
Degree Days  
Heating Degree Days 50 48  
Month to date heating degree days 1275  
Since 1 July heating degree days 2987  
Cooling Degree Days 0 0  
Month to date cooling degree days 0  
Year to date cooling degree days 690  
Moisture  
Dew Point 12 °F    
Average Humidity 89    
Maximum Humidity 100    
Minimum Humidity 79    
Precipitation  
Precipitation 0.00 in 0.02 in 0.34 in (1972)
Month to date precipitation 0.64  
Year to date precipitation 26.33  
Snow  
Snow 0.00 in 0.20 in 4.50 in (1982)
Month to date snowfall 7.5  
Since 1 July snowfall 16.2  
Snow Depth -    
Sea Level Pressure  
Sea Level Pressure 30.04 in    
Wind  
Wind Speed 8 mph (NW)    
Max Wind Speed 15 mph    
Max Gust Speed -    
Visibility 7 miles    
Events      
T = Trace of Precipitation, MM = Missing Value Source: NWS Daily Summary

Daily Weather History Graph

Daily Weather History Graph

Search for Another Location

Airport or City:

Trip Planner

Search our weather history database for the weather conditions in past years. The results will help you decide how hot, cold, wet, or windy it might be!

Date:

Astronomy

Dec. 28, 2012 Rise Set
Actual Time 8:00 AM CST 5:02 PM CST
Civil Twilight 7:27 AM CST 5:35 PM CST
Nautical Twilight 6:52 AM CST 6:10 PM CST
Astronomical Twilight 6:17 AM CST 6:45 PM CST
Moon 5:42 PM CST 7:53 AM CST
Length of Visible Light 10h 07m
Length of Day
9h 02m
Full, 100% of the Moon is Illuminated
Dec 28
Full
Jan 4
Last Quarter
Jan 11
New
Jan 18
First Quarter
Jan 26
Full

Hourly Weather History & Observations

Time (CST) Temp. Windchill Dew Point Humidity Pressure Visibility Wind Dir Wind Speed Gust Speed Precip Events Conditions
12:15 AM 19.4 °F 14.3 °F 17.6 °F 93% 30.00 in 10.0 mi NE 3.5 mph - N/A   Overcast
12:35 AM 19.4 °F 11.5 °F 15.8 °F 86% 30.00 in 10.0 mi NE 5.8 mph - N/A   Overcast
12:55 AM 19.4 °F 11.5 °F 15.8 °F 86% 30.00 in 10.0 mi NE 5.8 mph - N/A   Overcast
1:15 AM 19.4 °F 11.5 °F 15.8 °F 86% 29.99 in 9.0 mi NE 5.8 mph - N/A   Overcast
1:35 AM 19.4 °F 11.5 °F 15.8 °F 86% 29.99 in 2.0 mi NE 5.8 mph - N/A   Overcast
1:55 AM 17.6 °F 9.3 °F 15.8 °F 93% 29.99 in 3.0 mi NE 5.8 mph - N/A   Partly Cloudy
2:15 AM 17.6 °F 10.7 °F 15.8 °F 93% 29.99 in 6.0 mi NNE 4.6 mph - N/A   Clear
2:35 AM 17.6 °F 9.3 °F 15.8 °F 93% 30.00 in 5.0 mi NNE 5.8 mph - N/A   Clear
2:55 AM 17.6 °F 12.3 °F 15.8 °F 93% 30.00 in 6.0 mi North 3.5 mph - N/A   Clear
3:15 AM 17.6 °F 10.7 °F 15.8 °F 93% 30.00 in 8.0 mi North 4.6 mph - N/A   Clear
3:35 AM 17.6 °F 9.3 °F 15.8 °F 93% 30.00 in 1.8 mi North 5.8 mph - N/A   Clear
3:55 AM 17.6 °F - 15.8 °F 93% 30.00 in 2.5 mi North - - N/A   Clear
4:15 AM 17.6 °F 10.7 °F 15.8 °F 93% 30.00 in 2.0 mi North 4.6 mph - N/A   Clear
4:35 AM 17.6 °F 9.3 °F 15.8 °F 93% 29.99 in 2.5 mi NNW 5.8 mph - N/A   Clear
5:15 AM 17.6 °F 9.3 °F 15.8 °F 93% 29.98 in 4.0 mi NNW 5.8 mph - N/A   Clear
5:35 AM 17.6 °F 8.2 °F 15.8 °F 93% 29.99 in 5.0 mi NNW 6.9 mph - N/A   Clear
5:55 AM 15.8 °F 6.1 °F 15.8 °F 100% 29.99 in 5.0 mi NW 6.9 mph - N/A   Clear
6:15 AM 15.8 °F 6.1 °F 12.2 °F 86% 29.99 in 5.0 mi NW 6.9 mph - N/A   Clear
6:35 AM 14.0 °F 2.0 °F 12.2 °F 93% 30.00 in 5.0 mi NW 9.2 mph - N/A   Clear
6:55 AM 12.2 °F -1.8 °F 8.6 °F 85% 30.00 in 7.0 mi WNW 11.5 mph - N/A   Clear
7:15 AM 12.2 °F -1.0 °F 12.2 °F 100% 30.00 in 5.0 mi NW 10.4 mph - N/A   Clear
7:55 AM 15.8 °F 6.1 °F 12.2 °F 86% 30.00 in 3.0 mi NNW 6.9 mph - N/A   Mostly Cloudy
8:15 AM 15.8 °F 5.1 °F 15.8 °F 100% 30.01 in 2.0 mi NW 8.1 mph - N/A   Scattered Clouds
8:35 AM 15.8 °F 2.1 °F 14.0 °F 93% 30.01 in 3.0 mi NW 12.7 mph - N/A   Clear
8:55 AM 15.8 °F 3.4 °F 14.0 °F 93% 30.02 in 9.0 mi NW 10.4 mph - N/A   Clear
9:15 AM 14.0 °F 1.2 °F 12.2 °F 93% 30.03 in 9.0 mi NW 10.4 mph - N/A   Mostly Cloudy
9:35 AM 15.8 °F 3.4 °F 12.2 °F 86% 30.03 in 2.0 mi NW 10.4 mph - N/A   Mostly Cloudy
9:55 AM 14.0 °F 2.0 °F 12.2 °F 93% 30.04 in 2.5 mi NW 9.2 mph - N/A   Partly Cloudy
10:15 AM 14.0 °F 2.9 °F 10.4 °F 86% 30.04 in 5.0 mi NNW 8.1 mph - N/A   Mostly Cloudy
10:35 AM 12.2 °F -1.8 °F 8.6 °F 85% 30.05 in 10.0 mi NW 11.5 mph - N/A   Scattered Clouds
10:55 AM 12.2 °F -1.8 °F 10.4 °F 92% 30.05 in 8.0 mi NW 11.5 mph - N/A   Mostly Cloudy
11:15 AM 12.2 °F -1.8 °F 10.4 °F 92% 30.05 in 9.0 mi NW 11.5 mph - N/A   Overcast
11:35 AM 12.2 °F -3.1 °F 10.4 °F 92% 30.05 in 7.0 mi WNW 13.8 mph - N/A   Overcast
11:55 AM 12.2 °F -3.1 °F 10.4 °F 92% 30.05 in 7.0 mi WNW 13.8 mph - N/A   Overcast
12:15 PM 12.2 °F -2.5 °F 8.6 °F 85% 30.04 in 7.0 mi WNW 12.7 mph - N/A   Overcast
12:35 PM 12.2 °F -2.5 °F 10.4 °F 92% 30.04 in 7.0 mi WNW 12.7 mph - N/A   Overcast
12:55 PM 14.0 °F -0.8 °F 10.4 °F 86% 30.03 in 7.0 mi WNW 13.8 mph - N/A   Overcast
1:15 PM 14.0 °F -1.4 °F 10.4 °F 86% 30.02 in 7.0 mi WNW 15.0 mph - N/A   Overcast
1:35 PM 14.0 °F -0.8 °F 10.4 °F 86% 30.02 in 7.0 mi WNW 13.8 mph - N/A   Overcast
1:55 PM 14.0 °F 1.2 °F 10.4 °F 86% 30.02 in 7.0 mi WNW 10.4 mph - N/A   Overcast
2:15 PM 14.0 °F -0.2 °F 10.4 °F 86% 30.02 in 7.0 mi NW 12.7 mph - N/A   Mostly Cloudy
2:35 PM 14.0 °F 0.5 °F 12.2 °F 93% 30.03 in 6.0 mi NW 11.5 mph - N/A   Mostly Cloudy
2:55 PM 15.8 °F 2.1 °F 12.2 °F 86% 30.03 in 7.0 mi WNW 12.7 mph - N/A   Overcast
3:15 PM 15.8 °F 0.9 °F 12.2 °F 86% 30.04 in 6.0 mi WNW 15.0 mph - N/A   Overcast
3:35 PM 15.8 °F 1.4 °F 12.2 °F 86% 30.04 in 5.0 mi NW 13.8 mph - N/A   Overcast
3:55 PM 15.8 °F 2.1 °F 14.0 °F 93% 30.04 in 7.0 mi WNW 12.7 mph - N/A   Overcast
4:35 PM 15.8 °F 3.4 °F 12.2 °F 86% 30.05 in 7.0 mi WNW 10.4 mph - N/A   Mostly Cloudy
4:55 PM 15.8 °F 6.1 °F 14.0 °F 93% 30.06 in 8.0 mi WNW 6.9 mph - N/A   Overcast
5:15 PM 15.8 °F 6.1 °F 12.2 °F 86% 30.06 in 7.0 mi NW 6.9 mph - N/A   Overcast
5:35 PM 15.8 °F 5.1 °F 12.2 °F 86% 30.07 in 9.0 mi WNW 8.1 mph - N/A   Overcast
5:55 PM 15.8 °F 5.1 °F 14.0 °F 93% 30.07 in 9.0 mi WNW 8.1 mph - N/A   Overcast
6:15 PM 17.6 °F 5.7 °F 12.2 °F 79% 30.07 in 10.0 mi WNW 10.4 mph - N/A   Overcast
6:35 PM 15.8 °F 3.4 °F 12.2 °F 86% 30.07 in 10.0 mi WNW 10.4 mph - N/A   Overcast
6:55 PM 15.8 °F 2.7 °F 10.4 °F 79% 30.08 in 10.0 mi WNW 11.5 mph - N/A   Overcast
7:15 PM 15.8 °F 2.1 °F 10.4 °F 79% 30.09 in 10.0 mi WNW 12.7 mph - N/A   Overcast
7:35 PM 14.0 °F -0.8 °F 10.4 °F 86% 30.09 in 10.0 mi WNW 13.8 mph - N/A   Overcast
7:55 PM 14.0 °F 2.0 °F 10.4 °F 86% 30.09 in 10.0 mi WNW 9.2 mph - N/A   Overcast
8:15 PM 12.2 °F -1.8 °F 10.4 °F 92% 30.09 in 10.0 mi WNW 11.5 mph - N/A   Overcast
8:35 PM 12.2 °F -1.0 °F 12.2 °F 100% 30.09 in 10.0 mi WNW 10.4 mph - N/A   Overcast
8:55 PM 12.2 °F 1.7 °F 10.4 °F 92% 30.09 in 10.0 mi WNW 6.9 mph - N/A   Overcast
9:15 PM 12.2 °F -1.0 °F 8.6 °F 85% 30.09 in 10.0 mi WNW 10.4 mph - N/A   Overcast
9:35 PM 12.2 °F 0.7 °F 8.6 °F 85% 30.09 in 10.0 mi WNW 8.1 mph - N/A   Overcast
9:55 PM 12.2 °F 0.7 °F 10.4 °F 92% 30.09 in 10.0 mi West 8.1 mph - N/A   Overcast
10:15 PM 12.2 °F -0.2 °F 10.4 °F 92% 30.09 in 10.0 mi West 9.2 mph - N/A   Overcast
10:35 PM 12.2 °F 1.7 °F 8.6 °F 85% 30.10 in 10.0 mi West 6.9 mph - N/A   Overcast
10:55 PM 12.2 °F 2.9 °F 8.6 °F 85% 30.09 in 10.0 mi West 5.8 mph - N/A   Overcast
11:15 PM 12.2 °F 1.7 °F 8.6 °F 85% 30.10 in 10.0 mi West 6.9 mph - N/A   Overcast
11:35 PM 10.4 °F 0.8 °F 10.4 °F 100% 30.09 in 10.0 mi West 5.8 mph - N/A   Scattered Clouds
11:55 PM 10.4 °F 2.2 °F 6.8 °F 85% 30.09 in 10.0 mi West 4.6 mph - N/A   Clear